Погода в Нифантово

Россия / Вологодская область     59°12′49″N   38°27′55″E
темп.,
°C
ветер,
м/с
пор.,
м/с
влажн.,
%
обл.,
%
осадки,
мм/ч
давл.,
гПа
погр.,
м
22 мая, вс
вс2200:00−1ссв36745 0.0 101294
03:00−2св36795 0.0 1012124
06:000ссв46634 0.0 1011277
09:00+4ссв574939 0.0 10101385
12:00+8с574593 0.0 10081834
15:00+9ссв6844100 0.0 10072084
18:00+8ссв585799 0.0 10071598
21:00+3с237176 0.0 100730
23 мая, пн
пн2300:00+1ссз348070 0.0 100660
03:00+1ссз3107797 0.0 1005293
06:00+2сз51176100 0.0 1005510
09:00+5ссз7959100 0.0 10031025
12:00+7ссз71046100 0.0 10021501
15:00+9ссз61149100 0.0 10012200
18:00+7с51059100 0.0 1001801
21:00+1сз71398100 1.3 1002824
24 мая, вт
вт2400:00+1ссз61398100 1.4 1002689
03:000ссз51098100 2.3 1003521
06:00+1с479697 0.4 1004561
09:00+3с5685100 0.6 1005899
12:00+3с5684100 0.2 1007865
15:00+5с457794 0.4 10091052
18:00+5с4585100 0.7 1010792
21:00+2ссв33945 0.9 101249
25 мая, ср
ср2500:000ссз239545 0.0 101341
03:000ссз249843 0.0 101378
06:00+3с369682 0.0 1014215
09:00+7ссз468587 0.0 1013763
12:00+9ссз567276 0.5 10131199
15:00+10с566555 1.0 10131275
18:00+9ссв346631 0.1 1014839
21:00+5в228699 0.1 101416
26 мая, чт
чт2600:00+5ююв239297 0.0 101459
03:00+3ю239675 0.0 101443
06:00+6ю239072 0.0 1013166
09:00+10ююв356959 0.0 1011909
12:00+13ю555652 0.0 10091452
15:00+14ю455152 0.1 10081723
18:00+13юв5766100 0.0 1006582
21:00+9вюв4107899 0.0 1006265